"startDT [UTC]","vpos","CH4 [ppm]","stdev(CH4) [ppm]","CO2 [ppm]","stdev(CO2) [ppm]","H2O [ppm]","stdev(H2O)","p_LGR [torr]","T_LGR [C]","mt1_LGR [us]","mt2_LGR [us]","T_ECpre [C]","T_EC1 [C]","T_EC2 [C]","p_inlet [hPa]","p_in [hPa]","p_out [hPa]","T_inlet [C]","RH_inlet [%]","dwpt_inlet [C]","T_vent [C]","RH_vent [%]","dwpt_vent [C]","flow_vent [l min-1]","flow_inlet [l min-1]","dwpt_sample [C]","T_room [C]"
2012-10-24 00:00:00,0.0,1.9779,0.0013,402.31,0.45,45.9,30.5,138.13,28.19,24.63,36.37,0.04,-272.75,-272.75,-41,559,-935,22.7,2.9,-24.9,22.7,3.0,-24.7,5.73,2.42,-27.0,27.6
2012-10-24 00:01:00,0.0,1.9769,0.0013,402.17,0.41,54.1,31.5,138.13,28.18,24.64,36.36,0.04,-272.75,-272.75,-41,559,-935,22.7,2.9,-24.9,22.7,3.0,-24.7,5.73,2.41,-27.0,27.6
2012-10-24 00:02:00,0.0,1.9749,0.0012,402.21,0.43,57.9,33.4,138.13,28.18,24.64,36.36,0.04,-272.75,-272.75,-41,559,-935,22.7,2.9,-24.9,22.7,3.0,-24.7,5.73,2.42,-27.0,27.6
2012-10-24 00:03:00,0.0,1.9738,0.0009,401.98,0.37,49.1,36.5,138.13,28.18,24.63,36.37,0.04,-272.75,-272.75,-41,559,-935,22.6,3.0,-24.9,22.7,3.0,-24.7,5.73,2.42,-27.0,27.6
2012-10-24 00:04:00,0.0,1.9725,0.0013,401.97,0.46,52.0,33.6,138.13,28.17,24.64,36.37,0.04,-272.75,-272.75,-41,559,-935,22.6,3.0,-24.8,22.7,3.0,-24.7,5.73,2.42,-27.0,27.6
2012-10-24 00:05:00,0.0,1.9732,0.0012,402.05,0.44,54.2,29.6,138.13,28.17,24.64,36.37,0.04,-272.75,-272.74,-41,559,-935,22.7,3.0,-24.8,22.7,3.0,-24.6,5.73,2.42,-27.0,27.6
2012-10-24 00:06:00,0.0,1.9722,0.0015,402.04,0.47,51.7,36.2,138.13,28.17,24.64,36.37,0.04,-272.75,-272.75,-41,559,-934,22.6,3.0,-24.8,22.7,3.0,-24.6,5.73,2.42,-27.0,27.6
2012-10-24 00:07:00,0.0,1.9730,0.0009,402.05,0.45,46.5,28.0,138.13,28.16,24.64,36.37,0.04,-272.75,-272.75,-41,559,-934,22.6,3.0,-24.8,22.7,3.0,-24.6,5.73,2.42,-27.0,27.6
2012-10-24 00:08:00,0.0,1.9742,0.0010,402.18,0.38,53.1,33.8,138.13,28.16,24.63,36.37,0.04,-272.75,-272.75,-41,559,-934,22.6,3.0,-24.8,22.7,3.0,-24.7,5.73,2.42,-27.0,27.6
2012-10-24 00:09:00,0.0,1.9746,0.0011,402.21,0.45,55.0,34.7,138.13,28.16,24.63,36.36,0.04,-272.74,-272.75,-41,559,-934,22.6,3.0,-24.8,22.7,3.0,-24.7,5.73,2.42,-27.0,27.6
2012-10-24 00:10:00,0.0,1.9721,0.0011,402.01,0.47,42.7,30.0,138.13,28.15,24.64,36.36,0.04,-272.75,-272.75,-41,559,-934,22.6,2.9,-24.9,22.7,3.0,-24.7,5.73,2.42,-27.0,27.6
2012-10-24 00:11:00,0.0,1.9726,0.0010,402.09,0.43,54.3,29.7,138.13,28.15,24.64,36.36,0.04,-272.75,-272.75,-41,559,-934,22.6,2.9,-25.0,22.7,3.0,-24.7,5.73,2.42,-27.0,27.5
2012-10-24 00:12:00,0.0,1.9723,0.0011,401.99,0.42,45.4,33.0,138.13,28.15,24.64,36.37,0.04,-272.75,-272.75,-41,559,-934,22.6,2.9,-24.9,22.7,3.0,-24.7,5.73,2.42,-27.0,27.6
2012-10-24 00:13:00,0.0,1.9742,0.0012,402.07,0.48,48.2,32.2,138.13,28.14,24.63,36.37,0.04,-272.75,-272.75,-41,559,-934,22.6,3.0,-24.9,22.7,3.0,-24.7,5.73,2.41,-27.0,27.6
2012-10-24 00:14:00,0.0,1.9740,0.0009,402.20,0.40,50.5,34.2,138.13,28.14,24.64,36.36,0.04,-272.75,-272.75,-41,559,-935,22.6,2.9,-24.9,22.7,3.0,-24.7,5.73,2.41,-27.0,27.6
2012-10-24 00:15:00,0.0,1.9733,0.0009,402.16,0.42,50.4,32.8,138.13,28.14,24.64,36.36,0.04,-272.75,-272.75,-41,559,-935,22.6,2.9,-25.0,22.7,3.0,-24.8,5.73,2.42,-27.0,27.6
2012-10-24 00:16:00,0.0,1.9736,0.0012,402.11,0.44,51.0,34.2,138.13,28.14,24.64,36.38,0.04,-272.75,-272.75,-41,559,-935,22.6,2.9,-25.0,22.7,3.0,-24.8,5.73,2.42,-27.0,27.6
2012-10-24 00:17:00,0.0,1.9752,0.0013,402.17,0.47,49.3,30.1,138.13,28.13,24.63,36.36,0.04,-272.75,-272.75,-41,559,-935,22.6,2.9,-25.0,22.7,3.0,-24.8,5.73,2.41,-27.0,27.6
2012-10-24 00:18:00,0.0,1.9741,0.0014,402.09,0.46,53.8,30.9,138.13,28.13,24.63,36.37,0.04,-272.75,-272.75,-41,559,-934,22.6,2.9,-24.9,22.7,3.0,-24.8,5.73,2.42,-27.0,27.5
2012-10-24 00:19:00,0.0,1.9740,0.0010,402.09,0.40,46.0,34.0,138.13,28.13,24.63,36.36,0.04,-272.75,-272.75,-41,559,-934,22.6,2.9,-24.9,22.7,3.0,-24.8,5.73,2.42,-27.0,27.6
2012-10-24 00:20:00,0.0,1.9732,0.0011,402.05,0.48,55.3,31.5,138.13,28.13,24.64,36.37,0.04,-272.75,-272.75,-41,559,-934,22.6,2.9,-24.9,22.7,3.0,-24.8,5.73,2.41,-27.0,27.6
2012-10-24 00:21:00,0.0,1.9746,0.0011,402.06,0.46,47.1,33.3,138.13,28.13,24.63,36.37,0.04,-272.75,-272.75,-41,559,-934,22.6,2.9,-25.0,22.7,3.0,-24.8,5.73,2.42,-27.0,27.6
2012-10-24 00:22:00,0.0,1.9755,0.0011,402.16,0.45,50.2,30.3,138.13,28.12,24.64,36.36,0.04,-272.75,-272.74,-41,559,-934,22.6,2.9,-24.9,22.7,3.0,-24.7,5.73,2.41,-27.0,27.6
2012-10-24 00:23:00,0.0,1.9751,0.0012,402.16,0.40,46.9,31.5,138.13,28.12,24.63,36.37,0.04,-272.75,-272.75,-41,559,-934,22.6,2.9,-24.9,22.7,3.0,-24.8,5.73,2.42,-27.0,27.6
2012-10-24 00:24:00,0.0,1.9757,0.0012,402.21,0.35,46.7,32.9,138.13,28.12,24.63,36.37,0.04,-272.75,-272.75,-41,559,-934,22.6,3.0,-24.9,22.7,3.0,-24.8,5.73,2.42,-27.0,27.6
2012-10-24 00:25:00,0.0,1.9763,0.0009,402.30,0.46,50.1,36.5,138.13,28.11,24.63,36.37,0.04,-272.75,-272.75,-41,559,-935,22.6,2.9,-25.0,22.7,3.0,-24.8,5.73,2.42,-27.0,27.6
2012-10-24 00:26:00,0.0,1.9768,0.0012,402.30,0.38,51.9,30.9,138.13,28.11,24.63,36.36,0.04,-272.74,-272.75,-41,559,-935,22.6,2.9,-25.0,22.7,3.0,-24.8,5.73,2.41,-27.0,27.6
2012-10-24 00:27:00,0.0,1.9771,0.0010,402.50,0.47,45.6,36.1,138.13,28.11,24.63,36.36,0.04,-272.75,-272.75,-41,559,-934,22.6,2.9,-25.1,22.7,3.0,-24.8,5.73,2.41,-27.0,27.6
2012-10-24 00:28:00,0.0,1.9768,0.0011,402.30,0.37,53.4,34.8,138.13,28.11,24.63,36.37,0.04,-272.75,-272.75,-41,559,-934,22.6,2.9,-25.0,22.7,3.0,-24.9,5.73,2.41,-27.0,27.6
2012-10-24 00:29:00,0.0,1.9756,0.0014,402.25,0.41,44.8,32.3,138.13,28.10,24.63,36.37,0.04,-272.75,-272.75,-41,559,-934,22.6,2.9,-25.1,22.7,3.0,-24.9,5.73,2.41,-27.0,27.5
2012-10-24 00:30:00,0.0,1.9756,0.0010,402.13,0.45,43.6,34.8,138.13,28.10,24.63,36.37,0.04,-272.75,-272.75,-41,559,-934,22.6,2.9,-25.0,22.7,3.0,-24.9,5.73,2.41,-27.0,27.5
2012-10-24 00:31:00,0.0,1.9764,0.0008,402.19,0.52,51.2,35.2,138.13,28.10,24.63,36.37,0.04,-272.75,-272.75,-41,559,-934,22.6,2.9,-25.1,22.7,3.0,-24.8,5.73,2.41,-27.0,27.5
2012-10-24 00:32:00,0.0,1.9766,0.0009,402.37,0.47,50.5,38.5,138.13,28.10,24.64,36.36,0.04,-272.75,-272.75,-41,559,-934,22.6,2.9,-25.1,22.7,3.0,-24.8,5.73,2.41,-27.0,27.5
2012-10-24 00:33:00,0.0,1.9761,0.0010,402.29,0.38,54.1,30.0,138.13,28.10,24.64,36.37,0.04,-272.75,-272.75,-41,559,-934,22.6,2.9,-25.1,22.7,3.0,-24.8,5.73,2.41,-27.0,27.5
2012-10-24 00:34:00,0.0,1.9764,0.0012,402.35,0.35,49.3,27.6,138.13,28.09,24.63,36.36,0.04,-272.75,-272.75,-41,559,-934,22.6,2.9,-25.0,22.7,3.0,-24.8,5.73,2.41,-27.0,27.5
2012-10-24 00:35:00,0.0,1.9766,0.0012,402.27,0.41,50.6,34.7,138.13,28.09,24.63,36.37,0.04,-272.75,-272.75,-41,559,-934,22.6,2.9,-25.0,22.7,3.0,-24.8,5.73,2.41,-27.1,27.5
2012-10-24 00:36:00,0.0,1.9762,0.0010,402.25,0.35,47.5,31.5,138.13,28.09,24.63,36.37,0.04,-272.75,-272.75,-41,559,-934,22.6,2.9,-25.1,22.7,3.0,-24.8,5.73,2.42,-27.0,27.5
2012-10-24 00:37:00,0.0,1.9768,0.0010,402.27,0.43,50.7,37.8,138.13,28.09,24.63,36.37,0.04,-272.75,-272.75,-41,559,-934,22.6,2.9,-25.1,22.7,3.0,-24.8,5.73,2.42,-27.1,27.5
2012-10-24 00:38:00,0.0,1.9769,0.0010,402.21,0.50,48.2,28.7,138.13,28.08,24.63,36.37,0.04,-272.75,-272.75,-41,559,-934,22.6,2.9,-25.1,22.7,3.0,-24.8,5.73,2.41,-27.1,27.5
2012-10-24 00:39:00,0.0,1.9760,0.0010,402.23,0.44,52.2,39.9,138.13,28.08,24.64,36.37,0.04,-272.75,-272.75,-41,559,-934,22.6,2.9,-25.1,22.7,3.0,-24.8,5.73,2.42,-27.1,27.6
2012-10-24 00:40:00,0.0,1.9756,0.0010,402.18,0.42,45.4,29.6,138.13,28.08,24.64,36.37,0.04,-272.75,-272.75,-41,559,-934,22.5,2.9,-25.1,22.6,3.0,-24.8,5.73,2.41,-27.1,27.6
2012-10-24 00:41:00,0.0,1.9763,0.0009,402.08,0.43,48.0,30.0,138.13,28.08,24.63,36.37,0.04,-272.75,-272.75,-41,559,-934,22.5,2.9,-25.1,22.7,3.0,-24.8,5.73,2.42,-27.0,27.6
2012-10-24 00:42:00,0.0,1.9765,0.0011,402.13,0.49,47.4,32.3,138.13,28.08,24.63,36.37,0.04,-272.75,-272.75,-41,559,-934,22.6,2.9,-25.0,22.7,3.0,-24.8,5.73,2.42,-27.0,27.6
2012-10-24 00:43:00,0.0,1.9763,0.0009,402.11,0.46,40.9,33.8,138.13,28.08,24.63,36.37,0.04,-272.75,-272.75,-41,559,-935,22.6,3.0,-24.9,22.7,3.0,-24.8,5.73,2.42,-27.1,27.6
2012-10-24 00:44:00,0.0,1.9767,0.0010,402.25,0.44,45.9,31.4,138.13,28.07,24.63,36.37,0.04,-272.75,-272.75,-41,559,-934,22.5,2.9,-25.0,22.7,3.0,-24.8,5.73,2.41,-27.0,27.6
2012-10-24 00:45:00,0.0,1.9768,0.0012,402.27,0.47,43.9,32.3,138.13,28.07,24.63,36.37,0.04,-272.75,-272.75,-41,559,-934,22.6,2.9,-25.1,22.7,3.0,-24.8,5.73,2.41,-27.0,27.5
2012-10-24 00:46:00,0.0,1.9768,0.0010,402.26,0.44,50.0,37.3,138.13,28.07,24.64,36.38,0.04,-272.74,-272.75,-41,559,-933,22.6,2.9,-25.1,22.7,3.0,-24.8,5.73,2.42,-27.0,27.6
2012-10-24 00:47:00,0.0,1.9777,0.0010,402.34,0.38,50.0,30.5,138.13,28.06,24.63,36.36,0.04,-272.75,-272.75,-41,559,-934,22.6,2.9,-25.0,22.7,3.0,-24.8,5.73,2.41,-27.0,27.6
2012-10-24 00:48:00,0.0,1.9776,0.0010,402.29,0.46,44.4,29.7,138.13,28.06,24.64,36.38,0.04,-272.75,-272.75,-41,559,-934,22.5,3.0,-24.9,22.7,3.0,-24.7,5.73,2.42,-27.0,27.6
2012-10-24 00:49:00,0.0,1.9782,0.0012,402.38,0.45,43.9,31.5,138.13,28.06,24.63,36.37,0.04,-272.75,-272.75,-41,559,-934,22.5,3.0,-24.9,22.7,3.0,-24.7,5.73,2.42,-27.0,27.6
2012-10-24 00:50:00,0.0,1.9784,0.0011,402.29,0.41,45.4,33.2,138.13,28.06,24.63,36.37,0.04,-272.75,-272.75,-41,559,-934,22.5,3.0,-24.9,22.7,3.0,-24.7,5.73,2.42,-27.0,27.7
2012-10-24 00:51:00,0.0,1.9787,0.0011,402.28,0.39,55.4,39.7,138.13,28.06,24.64,36.37,0.04,-272.75,-272.75,-41,559,-934,22.5,3.0,-24.8,22.7,3.0,-24.6,5.73,2.42,-27.0,27.7
2012-10-24 00:52:00,0.0,1.9797,0.0010,402.30,0.37,53.1,36.0,138.13,28.06,24.63,36.37,0.04,-272.75,-272.74,-41,559,-934,22.6,3.0,-24.8,22.7,3.0,-24.6,5.73,2.42,-27.0,27.7
2012-10-24 00:53:00,0.0,1.9801,0.0009,402.42,0.40,62.2,30.4,138.13,28.06,24.63,36.37,0.04,-272.75,-272.75,-41,560,-934,22.5,3.0,-24.8,22.7,3.0,-24.6,5.73,2.42,-27.0,27.8
2012-10-24 00:54:00,0.0,1.9798,0.0009,402.38,0.47,55.5,33.0,138.13,28.06,24.63,36.37,0.04,-272.75,-272.75,-41,559,-934,22.5,3.0,-24.8,22.7,3.0,-24.5,5.73,2.42,-26.9,27.8
2012-10-24 00:55:00,0.0,1.9806,0.0008,402.50,0.44,61.2,33.6,138.13,28.06,24.63,36.37,0.04,-272.75,-272.75,-41,559,-934,22.5,3.0,-24.7,22.7,3.1,-24.5,5.73,2.42,-26.9,27.8
2012-10-24 00:56:00,0.0,1.9805,0.0008,402.30,0.53,57.9,33.4,138.13,28.06,24.64,36.38,0.04,-272.75,-272.75,-41,560,-934,22.6,3.0,-24.6,22.7,3.1,-24.4,5.73,2.42,-26.8,27.9
2012-10-24 00:57:00,0.0,1.9815,0.0011,402.49,0.45,66.2,35.9,138.13,28.06,24.63,36.37,0.04,-272.75,-272.75,-41,560,-934,22.6,3.0,-24.7,22.7,3.1,-24.5,5.73,2.42,-26.8,27.9
2012-10-24 00:58:00,0.0,1.9822,0.0009,402.55,0.47,73.9,37.2,138.13,28.06,24.64,36.37,0.04,-272.75,-272.75,-41,560,-935,22.5,3.0,-24.7,22.7,3.1,-24.4,5.73,2.42,-26.8,28.0
2012-10-24 00:59:00,0.0,1.9827,0.0010,402.56,0.43,67.2,34.5,138.13,28.06,24.64,36.37,0.04,-272.75,-272.75,-41,560,-934,22.6,3.0,-24.7,22.8,3.1,-24.4,5.73,2.42,-26.8,28.0
2012-10-24 01:00:00,0.0,1.9830,0.0013,402.57,0.38,72.3,35.0,138.13,28.06,24.63,36.37,0.04,-272.74,-272.75,-41,560,-934,22.6,3.0,-24.7,22.8,3.1,-24.4,5.73,2.41,-26.7,28.0
2012-10-24 01:01:00,0.0,1.9835,0.0011,402.52,0.42,73.9,34.6,138.13,28.06,24.63,36.37,0.04,-272.75,-272.75,-41,560,-934,22.6,3.0,-24.7,22.8,3.1,-24.4,5.73,2.41,-26.7,28.0
2012-10-24 01:02:00,0.0,1.9841,0.0009,402.62,0.46,75.8,34.8,138.13,28.06,24.63,36.37,0.04,-272.75,-272.75,-41,560,-934,22.6,3.0,-24.7,22.8,3.1,-24.4,5.73,2.41,-26.6,28.0
2012-10-24 01:03:00,0.0,1.9851,0.0013,402.73,0.42,75.3,38.0,138.13,28.06,24.63,36.37,0.04,-272.75,-272.75,-41,560,-934,22.6,3.0,-24.7,22.8,3.0,-24.5,5.73,2.42,-26.7,28.1
2012-10-24 01:04:00,0.0,1.9853,0.0011,402.72,0.45,63.6,31.0,138.13,28.06,24.63,36.37,0.04,-272.75,-272.75,-41,560,-934,22.6,3.0,-24.7,22.8,3.0,-24.5,5.73,2.42,-26.6,28.1
2012-10-24 01:05:00,0.0,1.9861,0.0009,402.75,0.37,62.5,36.3,138.13,28.06,24.64,36.37,0.04,-272.75,-272.75,-41,560,-934,22.6,3.0,-24.7,22.8,3.0,-24.5,5.73,2.42,-26.7,28.1
2012-10-24 01:06:00,0.0,1.9869,0.0009,402.76,0.47,72.6,41.0,138.13,28.06,24.64,36.38,0.04,-272.75,-272.75,-41,560,-935,22.6,3.0,-24.8,22.8,3.0,-24.5,5.73,2.42,-26.7,28.1
2012-10-24 01:07:00,0.0,1.9869,0.0010,402.53,0.49,64.6,34.9,138.13,28.06,24.64,36.38,0.04,-272.75,-272.75,-41,560,-935,22.6,3.0,-24.8,22.8,3.0,-24.5,5.73,2.42,-26.7,28.1
2012-10-24 01:08:00,0.0,1.9862,0.0012,402.63,0.40,70.5,38.7,138.13,28.06,24.63,36.37,0.04,-272.75,-272.75,-41,560,-935,22.6,3.0,-24.8,22.8,3.0,-24.5,5.73,2.42,-26.7,28.1
2012-10-24 01:09:00,0.0,1.9866,0.0010,402.69,0.42,63.3,34.1,138.13,28.06,24.64,36.37,0.04,-272.75,-272.74,-41,560,-934,22.6,3.0,-24.7,22.8,3.0,-24.5,5.73,2.42,-26.7,28.1
2012-10-24 01:10:00,0.0,1.9870,0.0009,402.69,0.48,60.7,34.9,138.13,28.06,24.63,36.37,0.04,-272.75,-272.75,-41,560,-934,22.5,3.0,-24.7,22.8,3.1,-24.4,5.73,2.42,-26.7,28.1
2012-10-24 01:11:00,0.0,1.9870,0.0010,402.69,0.43,66.9,37.1,138.13,28.06,24.63,36.37,0.04,-272.75,-272.75,-41,560,-934,22.6,3.0,-24.8,22.8,3.0,-24.5,5.73,2.42,-26.7,28.1
2012-10-24 01:12:00,0.0,1.9883,0.0016,402.74,0.39,63.4,37.5,138.13,28.06,24.63,36.37,0.04,-272.75,-272.75,-41,560,-934,22.5,3.0,-24.8,22.8,3.0,-24.5,5.73,2.41,-26.7,28.1
2012-10-24 01:13:00,0.0,1.9894,0.0012,402.71,0.45,67.1,34.1,138.13,28.06,24.64,36.38,0.04,-272.75,-272.74,-41,560,-935,22.5,3.0,-24.8,22.8,3.0,-24.5,5.73,2.42,-26.7,28.1
2012-10-24 01:14:00,0.0,1.9901,0.0010,402.77,0.37,58.4,31.1,138.13,28.06,24.63,36.37,0.04,-272.75,-272.75,-41,560,-935,22.5,3.0,-24.8,22.8,3.0,-24.5,5.73,2.41,-26.7,28.1
2012-10-24 01:15:00,0.0,1.9891,0.0009,402.87,0.40,64.6,33.2,138.13,28.06,24.63,36.36,0.04,-272.75,-272.75,-41,560,-934,22.5,3.0,-24.8,22.8,3.0,-24.6,5.73,2.42,-26.7,28.1
2012-10-24 01:16:00,0.0,1.9887,0.0009,402.77,0.41,60.0,33.0,138.13,28.06,24.64,36.37,0.04,-272.75,-272.74,-41,560,-934,22.5,3.0,-24.9,22.8,3.0,-24.6,5.73,2.42,-26.8,28.1
2012-10-24 01:17:00,0.0,1.9883,0.0009,402.78,0.43,77.6,34.6,138.13,28.07,24.64,36.37,0.04,-272.74,-272.75,-41,560,-934,22.5,3.0,-24.9,22.8,3.0,-24.7,5.73,2.41,-26.8,28.1
2012-10-24 01:18:00,0.0,1.9883,0.0014,402.98,0.37,71.3,35.9,138.13,28.06,24.64,36.36,0.04,-272.75,-272.75,-41,560,-934,22.5,3.0,-25.0,22.7,3.0,-24.7,5.73,2.41,-26.8,28.1
2012-10-24 01:19:00,0.0,1.9893,0.0009,402.77,0.41,71.8,32.5,138.13,28.06,24.63,36.37,0.04,-272.75,-272.75,-41,560,-934,22.5,2.9,-25.0,22.7,3.0,-24.8,5.73,2.41,-26.8,28.1
2012-10-24 01:20:00,0.0,1.9891,0.0008,402.83,0.43,68.0,32.2,138.13,28.06,24.64,36.37,0.04,-272.75,-272.75,-41,560,-935,22.5,2.9,-25.0,22.7,3.0,-24.8,5.73,2.41,-26.8,28.1
2012-10-24 01:21:00,0.0,1.9897,0.0013,402.71,0.44,57.9,32.4,138.13,28.06,24.64,36.38,0.04,-272.75,-272.75,-41,560,-935,22.5,2.9,-25.0,22.7,3.0,-24.8,5.73,2.41,-26.8,28.0
2012-10-24 01:22:00,0.0,1.9906,0.0016,402.78,0.43,61.8,30.8,138.13,28.06,24.64,36.37,0.04,-272.74,-272.74,-41,560,-935,22.5,2.9,-25.0,22.7,3.0,-24.7,5.73,2.41,-26.8,28.0
2012-10-24 01:23:00,0.0,1.9921,0.0009,402.89,0.43,59.0,34.2,138.13,28.06,24.64,36.37,0.04,-272.74,-272.75,-41,560,-935,22.5,2.9,-25.0,22.7,3.0,-24.7,5.73,2.41,-26.8,28.0
2012-10-24 01:24:00,0.0,1.9918,0.0012,402.98,0.44,64.2,36.3,138.13,28.06,24.63,36.37,0.04,-272.75,-272.75,-41,560,-934,22.5,2.9,-25.0,22.7,3.0,-24.8,5.73,2.41,-26.8,28.0
2012-10-24 01:25:00,0.0,1.9935,0.0009,403.01,0.41,70.0,39.2,138.13,28.06,24.63,36.37,0.04,-272.75,-272.75,-41,560,-934,22.5,2.9,-25.0,22.7,3.0,-24.8,5.73,2.41,-26.8,28.0
2012-10-24 01:26:00,0.0,1.9934,0.0013,402.99,0.48,63.9,32.8,138.13,28.06,24.64,36.37,0.04,-272.75,-272.74,-41,560,-934,22.5,2.9,-25.0,22.7,3.0,-24.8,5.73,2.41,-26.8,28.0
2012-10-24 01:27:00,0.0,1.9931,0.0011,403.07,0.44,56.0,36.9,138.13,28.06,24.64,36.36,0.04,-272.75,-272.75,-41,560,-934,22.5,2.9,-25.1,22.7,2.9,-24.9,5.73,2.41,-26.8,28.0
2012-10-24 01:28:00,0.0,1.9927,0.0009,403.03,0.40,70.5,32.3,138.13,28.06,24.63,36.37,0.04,-272.75,-272.75,-41,560,-934,22.5,2.9,-25.1,22.7,2.9,-24.9,5.73,2.41,-26.8,27.9
2012-10-24 01:29:00,0.0,1.9929,0.0010,403.01,0.45,63.6,36.3,138.13,28.06,24.63,36.37,0.04,-272.74,-272.74,-41,560,-935,22.5,2.9,-25.1,22.7,2.9,-24.9,5.73,2.40,-26.9,27.9
2012-10-24 01:30:00,0.0,1.9925,0.0013,402.89,0.45,54.0,32.5,138.13,28.06,24.64,36.38,0.04,-272.75,-272.75,-41,560,-935,22.5,2.9,-25.2,22.7,2.9,-25.0,5.73,2.40,-26.9,27.9
2012-10-24 01:31:00,0.0,1.9934,0.0010,403.11,0.42,53.1,37.8,138.13,28.05,24.63,36.37,0.04,-272.75,-272.75,-41,560,-935,22.5,2.9,-25.2,22.7,2.9,-25.0,5.73,2.41,-26.9,27.9
2012-10-24 01:32:00,0.0,1.9940,0.0009,403.03,0.48,52.9,32.5,138.13,28.06,24.64,36.37,0.04,-272.75,-272.75,-41,560,-934,22.5,2.9,-25.2,22.7,2.9,-24.9,5.73,2.41,-26.9,27.9
2012-10-24 01:33:00,0.0,1.9946,0.0010,402.91,0.44,60.6,38.6,138.13,28.06,24.64,36.38,0.04,-272.74,-272.75,-41,560,-934,22.5,2.9,-25.2,22.7,2.9,-24.9,5.73,2.41,-26.9,27.9
2012-10-24 01:34:00,0.0,1.9950,0.0009,403.09,0.46,51.6,32.8,138.13,28.06,24.64,36.36,0.04,-272.75,-272.75,-41,560,-934,22.5,2.9,-25.2,22.7,2.9,-25.0,5.73,2.41,-26.9,27.9
2012-10-24 01:35:00,0.0,1.9958,0.0010,403.10,0.38,56.0,36.6,138.13,28.06,24.63,36.37,0.04,-272.75,-272.75,-41,560,-934,22.5,2.9,-25.2,22.7,2.9,-25.0,5.73,2.41,-26.9,27.8
2012-10-24 01:36:00,0.0,1.9950,0.0012,403.14,0.49,59.2,35.8,138.13,28.06,24.64,36.37,0.04,-272.74,-272.75,-41,560,-934,22.6,2.9,-25.2,22.7,2.9,-25.0,5.73,2.41,-26.9,27.8
2012-10-24 01:37:00,0.0,1.9953,0.0010,403.13,0.49,58.6,37.6,138.13,28.05,24.63,36.37,0.04,-272.75,-272.75,-41,560,-935,22.6,2.9,-25.2,22.7,2.9,-24.9,5.73,2.42,-26.9,27.8
2012-10-24 01:38:00,0.0,1.9952,0.0010,403.02,0.44,65.3,35.3,138.13,28.05,24.63,36.37,0.04,-272.75,-272.75,-41,560,-935,22.5,2.9,-25.2,22.7,2.9,-24.9,5.73,2.42,-26.9,27.8
2012-10-24 01:39:00,0.0,1.9947,0.0011,403.11,0.41,63.6,33.7,138.13,28.05,24.63,36.36,0.04,-272.75,-272.75,-41,560,-934,22.6,2.9,-25.2,22.7,2.9,-24.9,5.73,2.42,-27.0,27.8
2012-10-24 01:40:00,0.0,1.9940,0.0013,403.14,0.42,59.0,38.7,138.13,28.05,24.63,36.37,0.04,-272.75,-272.75,-41,560,-934,22.6,2.9,-25.2,22.7,2.9,-24.9,5.73,2.42,-27.0,27.8
2012-10-24 01:41:00,0.0,1.9937,0.0011,403.09,0.44,61.3,34.2,138.13,28.05,24.64,36.36,0.04,-272.75,-272.75,-41,560,-934,22.6,2.9,-25.2,22.7,2.9,-24.9,5.73,2.42,-27.0,27.8
2012-10-24 01:42:00,0.0,1.9940,0.0010,403.17,0.46,58.6,34.9,138.13,28.05,24.63,36.37,0.04,-272.75,-272.75,-41,560,-934,22.6,2.9,-25.1,22.7,2.9,-24.9,5.73,2.42,-27.0,27.8
2012-10-24 01:43:00,0.0,1.9936,0.0012,402.96,0.54,58.2,39.7,138.13,28.05,24.64,36.38,0.04,-272.75,-272.75,-41,560,-934,22.6,2.9,-25.1,22.7,2.9,-24.9,5.73,2.42,-27.0,27.8
2012-10-24 01:44:00,0.0,1.9944,0.0012,403.04,0.45,57.2,35.5,138.13,28.05,24.63,36.37,0.04,-272.75,-272.75,-41,560,-934,22.6,2.9,-25.2,22.7,2.9,-24.9,5.73,2.42,-27.0,27.7
2012-10-24 01:45:00,0.0,1.9944,0.0014,403.27,0.46,50.8,31.3,138.13,28.05,24.64,36.36,0.04,-272.75,-272.75,-41,560,-935,22.6,2.9,-25.2,22.7,2.9,-24.9,5.73,2.43,-27.0,27.8
2012-10-24 01:46:00,0.0,1.9947,0.0014,403.17,0.37,53.0,32.4,138.13,28.05,24.63,36.37,0.04,-272.74,-272.75,-41,560,-934,22.6,2.9,-25.2,22.7,2.9,-25.0,5.73,2.43,-27.0,27.8
2012-10-24 01:47:00,0.0,1.9959,0.0012,403.04,0.41,61.6,32.9,138.13,28.05,24.63,36.37,0.04,-272.75,-272.75,-41,560,-934,22.6,2.9,-25.2,22.7,2.9,-25.0,5.73,2.42,-27.0,27.8
2012-10-24 01:48:00,0.0,1.9960,0.0013,403.12,0.46,51.8,37.0,138.13,28.05,24.64,36.37,0.04,-272.75,-272.75,-41,560,-934,22.6,2.9,-25.2,22.7,2.9,-24.9,5.73,2.43,-27.0,27.7
2012-10-24 01:49:00,0.0,1.9944,0.0010,403.14,0.41,56.4,34.0,138.13,28.05,24.63,36.37,0.04,-272.75,-272.75,-41,560,-934,22.6,2.9,-25.3,22.7,2.9,-25.0,5.73,2.42,-27.0,27.8
2012-10-24 01:50:00,0.0,1.9966,0.0014,403.26,0.47,66.4,37.5,138.13,28.05,24.64,36.37,0.04,-272.74,-272.75,-41,560,-934,22.6,2.9,-25.3,22.7,2.9,-25.1,5.73,2.42,-27.0,27.7
2012-10-24 01:51:00,0.0,1.9983,0.0011,403.20,0.50,47.7,37.7,138.13,28.05,24.63,36.37,0.04,-272.75,-272.75,-41,560,-934,22.6,2.9,-25.3,22.7,2.9,-25.1,5.73,2.42,-27.0,27.8
2012-10-24 01:52:00,0.0,1.9988,0.0011,403.27,0.45,58.0,33.5,138.13,28.04,24.63,36.37,0.04,-272.75,-272.75,-41,560,-934,22.6,2.9,-25.3,22.7,2.9,-25.0,5.73,2.41,-27.0,27.8
2012-10-24 01:53:00,0.0,1.9976,0.0008,403.34,0.50,57.3,37.1,138.13,28.04,24.64,36.37,0.04,-272.75,-272.75,-41,560,-934,22.6,2.9,-25.2,22.7,2.9,-25.0,5.73,2.42,-27.0,27.7
2012-10-24 01:54:00,0.0,1.9995,0.0011,403.29,0.46,74.0,32.8,138.13,28.04,24.63,36.37,0.04,-272.75,-272.75,-41,560,-934,22.6,2.9,-25.2,22.7,2.9,-25.0,5.73,2.41,-27.0,27.7
2012-10-24 01:55:00,0.0,1.9982,0.0010,403.25,0.37,54.9,40.6,138.13,28.04,24.63,36.37,0.04,-272.75,-272.75,-41,560,-933,22.6,2.9,-25.2,22.7,2.9,-25.0,5.73,2.42,-27.0,27.7
2012-10-24 01:56:00,0.0,1.9974,0.0009,403.07,0.43,59.6,30.8,138.13,28.04,24.63,36.37,0.04,-272.75,-272.74,-41,560,-934,22.6,2.9,-25.1,22.7,2.9,-24.9,5.73,2.41,-27.0,27.7
2012-10-24 01:57:00,0.0,1.9980,0.0013,403.30,0.44,59.1,33.5,138.13,28.04,24.63,36.37,0.04,-272.74,-272.75,-41,560,-934,22.6,2.9,-25.1,22.7,2.9,-24.8,5.73,2.40,-27.0,27.7
2012-10-24 01:58:00,0.0,1.9994,0.0014,403.12,0.45,48.7,35.8,138.13,28.04,24.64,36.37,0.04,-272.74,-272.75,-41,560,-934,22.6,2.9,-25.1,22.7,2.9,-24.9,5.73,2.41,-27.0,27.7
2012-10-24 01:59:00,0.0,2.0012,0.0010,403.25,0.43,55.3,35.3,138.13,28.04,24.63,36.37,0.04,-272.75,-272.75,-41,560,-934,22.6,2.9,-25.0,22.7,2.9,-24.8,5.73,2.41,-27.0,27.7
2012-10-24 02:00:00,0.0,2.0007,0.0011,403.13,0.36,54.5,34.4,138.13,28.04,24.64,36.37,0.04,-272.75,-272.75,-41,560,-934,22.6,2.9,-25.1,22.7,3.0,-24.8,5.73,2.41,-27.0,27.7
2012-10-24 02:01:00,0.0,2.0009,0.0011,403.21,0.42,50.9,35.1,138.13,28.03,24.63,36.37,0.04,-272.75,-272.75,-41,560,-933,22.6,2.9,-25.0,22.7,3.0,-24.8,5.73,2.41,-27.0,27.7
2012-10-24 02:02:00,0.0,2.0015,0.0010,403.28,0.44,50.7,32.9,138.13,28.04,24.64,36.37,0.04,-272.74,-272.75,-41,560,-934,22.6,2.9,-25.0,22.7,3.0,-24.7,5.73,2.40,-27.0,27.7
2012-10-24 02:03:00,0.0,2.0026,0.0013,403.28,0.43,54.8,31.7,138.13,28.04,24.63,36.37,0.04,-272.75,-272.74,-41,560,-934,22.6,2.9,-24.9,22.7,3.0,-24.7,5.73,2.41,-27.0,27.7
2012-10-24 02:04:00,0.0,2.0026,0.0011,403.27,0.43,48.3,30.9,138.13,28.04,24.63,36.37,0.04,-272.75,-272.75,-41,560,-934,22.6,3.0,-24.9,22.7,3.0,-24.7,5.73,2.40,-27.0,27.7
2012-10-24 02:05:00,0.0,2.0022,0.0010,403.33,0.45,56.6,36.0,138.13,28.04,24.64,36.37,0.04,-272.75,-272.75,-41,560,-934,22.6,3.0,-24.8,22.7,3.0,-24.6,5.73,2.41,-27.0,27.7
2012-10-24 02:06:00,0.0,2.0022,0.0010,403.23,0.39,50.2,35.9,138.13,28.04,24.64,36.37,0.04,-272.74,-272.75,-41,560,-933,22.6,3.0,-24.8,22.7,3.0,-24.6,5.73,2.41,-27.0,27.7
2012-10-24 02:07:00,0.0,2.0031,0.0010,403.23,0.47,50.2,34.6,138.13,28.04,24.63,36.37,0.04,-272.75,-272.75,-41,560,-933,22.6,3.0,-24.8,22.7,3.0,-24.6,5.73,2.41,-27.0,27.8
2012-10-24 02:08:00,0.0,2.0030,0.0010,403.28,0.34,52.5,33.2,138.13,28.03,24.64,36.37,0.04,-272.75,-272.75,-41,560,-934,22.6,3.0,-24.8,22.7,3.0,-24.6,5.73,2.42,-27.0,27.7
2012-10-24 02:09:00,0.0,2.0032,0.0011,403.28,0.49,59.8,34.8,138.13,28.03,24.63,36.37,0.04,-272.75,-272.75,-41,560,-934,22.6,3.0,-24.8,22.7,3.0,-24.5,5.73,2.42,-27.0,27.7
2012-10-24 02:10:00,0.0,2.0024,0.0011,403.37,0.42,55.6,29.4,138.13,28.04,24.63,36.36,0.04,-272.74,-272.75,-41,560,-934,22.6,3.0,-24.7,22.7,3.0,-24.5,5.73,2.43,-27.1,27.7
2012-10-24 02:11:00,0.0,2.0030,0.0010,403.18,0.38,59.0,31.2,138.13,28.04,24.64,36.37,0.04,-272.75,-272.75,-41,560,-934,22.6,3.0,-24.7,22.7,3.0,-24.5,5.73,2.42,-27.0,27.7
2012-10-24 02:12:00,0.0,2.0024,0.0010,403.26,0.48,49.7,33.3,138.13,28.03,24.64,36.37,0.04,-272.75,-272.75,-41,560,-934,22.6,3.0,-24.7,22.7,3.0,-24.5,5.73,2.42,-27.0,27.7
2012-10-24 02:13:00,0.0,2.0034,0.0011,403.34,0.38,55.3,29.0,138.13,28.03,24.63,36.37,0.04,-272.75,-272.75,-41,560,-934,22.7,3.0,-24.7,22.7,3.1,-24.5,5.73,2.42,-27.1,27.7
2012-10-24 02:14:00,0.0,2.0031,0.0010,403.29,0.38,47.6,30.7,138.13,28.03,24.64,36.37,0.04,-272.75,-272.75,-41,560,-934,22.6,3.0,-24.7,22.7,3.1,-24.4,5.73,2.42,-27.0,27.7
2012-10-24 02:15:00,0.0,2.0027,0.0010,403.17,0.42,59.4,34.6,138.13,28.03,24.64,36.37,0.04,-272.75,-272.75,-41,560,-934,22.6,3.0,-24.7,22.7,3.1,-24.4,5.73,2.43,-27.1,27.7
2012-10-24 02:16:00,0.0,2.0024,0.0011,403.15,0.43,54.9,35.0,138.13,28.03,24.64,36.37,0.04,-272.75,-272.75,-41,560,-934,22.7,3.0,-24.7,22.7,3.1,-24.5,5.73,2.42,-27.1,27.7
2012-10-24 02:17:00,0.0,2.0024,0.0010,403.07,0.44,53.0,37.5,138.13,28.03,24.64,36.37,0.04,-272.75,-272.75,-41,560,-934,22.6,3.0,-24.7,22.7,3.1,-24.4,5.73,2.43,-27.1,27.7